User: anonymous   Login
Location: Hertford
(51.8000°N, 0.0667°W)
Time: 14:31:20
(UTC+00:00)
Language:

Cosmos 1655 Rocket - Orbit

View from above orbital plane
View from above orbital plane
View from above satellite
View from above satellite

Ground track
Ground track

The orbit data is extracted from the following two-line orbital elements,

1 15752U 85041B   21206.91051318  .00000036  00000-0  22997-4 0  9999
2 15752  82.9497 280.2561 0022744 279.8879  79.9708 13.73119733811428
Epoch (UTC): 25 July 2021 21:51:08
Eccentricity: 0.0022744
inclination: 82.9497°
perigee height: 971 km
apogee height: 1005 km
right ascension of ascending node: 280.2561°
argument of perigee: 279.8879°
revolutions per day: 13.73119733
mean anomaly at epoch: 79.9708°
orbit number at epoch: 81142

The dashed part of the orbit path shows where the satellite is in the earth's shadow,  

DLR